Simultaneous Nadir Overpasses (SNOs) Predictions

Prediction of SNOs between NOAA-19 and TERRA Satellite Orbit:

Table of predicted SNOs for the next 14.0 days since TLE Epoch: 12/12/2020
Index Date (NOAA-19) Time (NOAA-19) Lat,Lon (NOAA-19) SZA (NOAA-19 ) Date (TERRA) Time (TERRA) Lat,Lon (TERRA) SZA (TERRA ) Distance(km) Time Diff (sec)
1 12/13/2020 17:24:12 -79.89, 130.22 75.45 12/13/2020 17:23:57 -79.90, 130.07 75.47 3.03 15
2 12/15/2020 22:57:25 79.93,-133.41 104.65 12/15/2020 22:57:39 79.90,-133.35 104.63 3.28 14
3 12/18/2020 04:30:40 -79.93, -36.62 75.30 12/18/2020 04:31:21 -79.93, -36.52 75.27 2.10 41
4 12/18/2020 05:21:38 79.90, 130.94 104.71 12/18/2020 05:20:48 79.90, 130.83 104.68 2.28 50
5 12/20/2020 10:03:53 79.94, 60.02 104.72 12/20/2020 10:05:03 79.93, 59.99 104.73 1.63 70
6 12/20/2020 10:54:53 -79.92,-132.45 75.28 12/20/2020 10:54:30 -79.93,-132.35 75.27 2.43 23
7 12/22/2020 16:28:07 79.94, -35.97 104.70 12/22/2020 16:28:12 79.92, -35.88 104.69 3.20 5
8 12/24/2020 22:01:20 -79.94, 60.88 75.36 12/24/2020 22:01:54 -79.94, 60.92 75.34 1.37 34



Historial Predications of SNOs between NOAA-19 and TERRA
